FW0871 Weather Reports


time (UTC)temp
C
wind
direction
speed
KPH
gust
KPH
rain 1hr
cm
rain 24hr
cm
rain mn
cm
humidity
%
barometer
mb
20260506044547 10 176 9.7 27.4 0.00 0.00 0.00 90 1009.1
20260506043047 10 146 11.3 30.6 0.00 0.00 0.00 90 1009.0
20260506041546 10 176 12.9 25.7 0.00 0.00 0.00 91 1009.1
20260506040043 10 166 11.3 30.6 0.00 0.00 0.00 91 1009.0
20260506034543 10 218 9.7 24.1 0.00 0.00 0.00 90 1009.0
20260506033042 10 164 9.7 19.3 0.00 0.00 0.00 90 1009.1
20260506031542 10 117 8.0 17.7 0.00 0.00 0.00 90 1009.2
20260506030039 10 158 6.4 17.7 0.00 0.00 0.00 89 1009.1
20260506024547 11 86 6.4 17.7 0.00 0.00 0.00 89 1009.2
20260506023039 11 160 4.8 16.1 0.00 0.00 0.00 88 1009.2
20260506021538 11 230 4.8 17.7 0.00 0.00 0.00 87 1009.5
20260506020036 12 197 9.7 17.7 0.00 0.00 0.00 86 1009.3
20260506014535 12 123 12.9 24.1 0.00 0.00 0.00 85 1009.3
20260506013034 12 138 6.4 25.7 0.00 0.00 0.00 84 1009.5
20260506011559 13 133 9.7 25.7 0.00 0.00 0.00 83 1009.2
20260506010031 13 159 12.9 29.0 0.00 0.00 0.00 83 1009.2
20260506004533 12 207 12.9 24.1 0.00 0.00 0.00 83 1008.5
20260506003030 13 169 12.9 24.1 0.00 0.00 0.00 81 1008.5
20260506001530 13 205 12.9 24.1 0.00 0.00 0.00 81 1007.9
20260506000121 14 150 6.4 19.3 0.00 0.00 0.00 81 1008.1
20260505234558 13 175 4.8 17.7 0.00 0.00 0.00 82 1008.2
20260505233059 11 304 8.0 37.0 0.00 0.00 0.00 87 1007.7
20260505231609 11 141 9.7 27.4 0.00 0.00 0.00 87 1006.3
20260505230105 11 166 19.3 35.4 0.00 0.00 0.00 87 1006.1
20260505224552 12 137 16.1 35.4 0.00 0.00 0.00 86 1006.0
20260505223049 12 140 14.5 32.2 0.00 0.00 0.00 84 1005.7
20260505221557 12 195 16.1 32.2 0.00 0.00 0.00 84 1005.7
20260505220048 12 207 12.9 33.8 0.00 0.00 0.00 84 1005.6
20260505214547 12 162 14.5 38.6 0.00 0.00 0.00 84 1005.6
20260505213017 13 162 14.5 43.5 0.00 0.00 0.00 83 1005.7
20260505211525 13 131 17.7 41.8 0.00 0.00 0.00 82 1005.5
20260505210011 13 143 19.3 49.9 0.00 0.00 0.00 81 1005.7
20260505204511 13 166 16.1 29.0 0.00 0.00 0.00 82 1005.6
20260505183031 13 155 12.9 32.2 0.00 0.00 0.00 85 1006.9
20260505181534 12 156 20.9 33.8 0.00 0.00 0.00 85 1007.1
20260505180038 12 204 16.1 43.5 0.00 0.00 0.00 86 1007.1
20260505174529 13 173 12.9 32.2 0.00 0.00 0.00 85 1007.8
20260505173022 12 186 16.1 35.4 0.00 0.00 0.00 85 1008.1
20260505171519 13 149 11.3 35.4 0.00 0.00 0.00 85 1007.8
20260505170020 12 159 11.3 29.0 0.00 0.00 0.00 86 1008.1
20260505164515 12 172 11.3 25.7 0.00 0.00 0.00 86 1008.2
20260505163015 12 191 14.5 27.4 0.00 0.00 0.00 86 1008.6
20260505161509 12 171 11.3 25.7 0.00 0.00 0.00 86 1008.6
20260505153002 11 217 14.5 29.0 0.00 0.00 0.00 90 1009.5
20260505151559 10 169 12.9 32.2 0.00 0.00 0.00 91 1009.8
20260505150111 10 197 16.1 29.0 0.00 0.00 0.00 90 1009.2
20260505124540 10 254 6.4 22.5 0.00 0.00 0.00 90 1009.1
20260505123023 10 240 4.8 20.9 0.00 0.00 0.00 90 1009.2
20260505121529 10 134 6.4 19.3 0.00 0.00 0.00 89 1009.2
20260505120015 10 136 8.0 20.9 0.00 0.00 0.00 90 1009.5
20260505114515 10 153 4.8 14.5 0.00 0.00 0.00 90 1009.4
20260505113014 10 158 6.4 17.7 0.00 0.00 0.00 91 1009.5
20260505111509 9 120 6.4 14.5 0.00 0.00 0.00 91 1009.5
20260505101503 8 146 4.8 16.1 0.00 0.00 0.00 91 1009.2
20260505100008 8 158 4.8 9.7 0.00 0.00 0.00 91 1009.1
20260505094502 8 156 1.6 9.7 0.00 0.00 0.00 91 1009.1
20260505093001 8 241 4.8 16.1 0.00 0.00 0.00 91 1009.1
20260505091617 8 153 4.8 14.5 0.00 0.00 0.00 91 1009.3
20260505090101 8 174 3.2 11.3 0.00 0.00 0.00 90 1009.3
20260505084554 9 131 1.6 11.3 0.00 0.00 0.00 89 1009.3
20260505083054 9 205 6.4 19.3 0.00 0.00 0.00 89 1009.4
20260505081522 9 123 3.2 11.3 0.00 0.00 0.00 88 1009.3
20260505080019 9 176 6.4 14.5 0.00 0.00 0.00 88 1009.3
20260505074515 9 179 4.8 16.1 0.00 0.00 0.00 87 1009.4
20260505073014 10 148 6.4 11.3 0.00 0.00 0.00 87 1009.2
20260505071512 10 238 4.8 16.1 0.00 0.00 0.00 86 1009.3
20260505070012 10 129 3.2 14.5 0.00 0.00 0.00 85 1009.2
20260505064540 10 150 4.8 12.9 0.00 0.00 0.00 84 1009.1
20260505063048 10 195 4.8 14.5 0.00 0.00 0.00 84 1009.1
20260505061540 10 154 6.4 12.9 0.00 0.00 0.00 83 1009.2
20260505060037 10 174 3.2 16.1 0.00 0.00 0.00 82 1009.2